Minsk In-Min, Belarus

7:01 AM +03 on February 26, 2018 (GMT +0300)
Minsk In-Min

Weather History for UMMS - July, 2013

Change the Weather History Date:

Friday, July 19, 2013

  Actual Average Record
Temperature  
Mean Temperature 65 °F -  
Max Temperature 73 °F 71 °F 87 °F (2002)
Min Temperature 55 °F 54 °F 33 °F (1996)
Growing Degree Days 15 (Base 50)    
Moisture  
Dew Point 57 °F    
Average Humidity 79    
Maximum Humidity 94    
Minimum Humidity 44    
Precipitation  
Precipitation 0.16 in 0.10 in - ()
Sea Level Pressure  
Sea Level Pressure 29.84 in    
Wind  
Wind Speed 4 mph ()    
Max Wind Speed 11 mph    
Max Gust Speed 22 mph    
Visibility 6.3 miles    
Events Rain    
Averages and records for this station are not official NWS values.
T = Trace of Precipitation, MM = Missing Value Source: Averaged Metar Reports

Daily Weather History Graph

Daily Weather History Graph

Search for Another Location

Airport or City:

Trip Planner

Search our weather history database for the weather conditions in past years. The results will help you decide how hot, cold, wet, or windy it might be!

Date:

Astronomy

Jul. 19, 2013 Rise Set
Actual Time 5:03 AM +03 9:28 PM +03
Civil Twilight 4:14 AM +03 10:16 PM +03
Nautical Twilight 3:00 AM +03 11:29 PM +03
Astronomical Twilight 1:48 AM +03 12:43 AM +03
Moon 6:07 PM +03 (7/19) 1:32 AM +03 (7/19)
Length of Visible Light 18h 01m
Length of Day
16h 24m
Waxing Gibbous, 84% of the Moon is Illuminated
Jul 19
Waxing Gibbous
Jul 22
Full
Jul 29
Last Quarter
Aug 7
New
Aug 14
First Quarter

Hourly Weather History & Observations

Time (+03) Temp. Dew Point Humidity Pressure Visibility Wind Dir Wind Speed Gust Speed Precip Events Conditions
12:00 AM 65 °F 56 °F 64% 30.01 in 12 mi Calm Calm - -  
12:00 AM 60.8 °F 55.4 °F 82% 30.04 in - Variable 2.2 mph - N/A   Clear
12:30 AM 59.0 °F 53.6 °F 82% 30.01 in - Variable 2.2 mph - N/A   Clear
1:00 AM 59.0 °F 55.4 °F 88% 30.01 in - Variable 2.2 mph - N/A   Clear
1:30 AM 59.0 °F 53.6 °F 82% 30.01 in - Variable 2.2 mph - N/A   Clear
2:00 AM 60.8 °F 55.4 °F 82% 30.01 in - Calm Calm - N/A   Clear
2:30 AM 60.8 °F 53.6 °F 77% 29.98 in - Calm Calm - N/A   Clear
3:00 AM 66 °F 56 °F 61% 29.98 in 12 mi WNW 2.2 mph - -  
3:00 AM 60.8 °F 53.6 °F 77% 29.98 in - Variable 2.2 mph - N/A   Clear
3:30 AM 59.0 °F 53.6 °F 82% 29.98 in - WSW 4.5 mph - N/A   Clear
4:00 AM 59.0 °F 53.6 °F 82% 29.98 in - SW 4.5 mph - N/A   Clear
4:30 AM 59.0 °F 53.6 °F 82% 29.98 in 6.2 mi SW 4.5 mph - N/A   Scattered Clouds
5:00 AM 57.2 °F 53.6 °F 88% 29.95 in 6.2 mi SW 4.5 mph - N/A   Scattered Clouds
5:30 AM 57.2 °F 53.6 °F 88% 29.95 in 6.2 mi SW 4.5 mph - N/A   Scattered Clouds
6:00 AM 62 °F 55 °F 73% 29.95 in 12 mi Calm Calm - -   Clear
6:00 AM 59.0 °F 55.4 °F 88% 29.95 in - WSW 4.5 mph - N/A   Clear
6:30 AM 59.0 °F 55.4 °F 88% 29.95 in - WSW 4.5 mph - N/A   Clear
7:00 AM 59.0 °F 55.4 °F 88% 29.95 in 6.2 mi WSW 4.5 mph - N/A   Mostly Cloudy
7:30 AM 59.0 °F 55.4 °F 88% 29.92 in 6.2 mi SW 4.5 mph - N/A   Mostly Cloudy
8:00 AM 62.6 °F 57.2 °F 82% 29.92 in 6.2 mi SW 4.5 mph - N/A   Scattered Clouds
8:30 AM 64.4 °F 59.0 °F 83% 29.92 in 6.2 mi SW 4.5 mph - N/A   Scattered Clouds
9:00 AM 68 °F 56 °F 55% 29.88 in 12 mi WSW 2.2 mph - -   Scattered Clouds
9:00 AM 68.0 °F 59.0 °F 73% 29.89 in 6.2 mi SW 4.5 mph - N/A   Scattered Clouds
9:30 AM 68.0 °F 57.2 °F 68% 29.89 in 6.2 mi SW 6.7 mph - N/A   Scattered Clouds
10:00 AM 69.8 °F 59.0 °F 68% 29.86 in 6.2 mi SW 6.7 mph 13.4 mph N/A   Scattered Clouds
10:30 AM 71.6 °F 59.0 °F 64% 29.86 in 6.2 mi WSW 8.9 mph 17.9 mph N/A   Mostly Cloudy
11:00 AM 71.6 °F 57.2 °F 60% 29.86 in 6.2 mi WSW 11.2 mph 17.9 mph N/A   Mostly Cloudy
11:30 AM 71.6 °F 55.4 °F 57% 29.86 in 6.2 mi West 11.2 mph 20.1 mph N/A   Mostly Cloudy
12:00 PM 72 °F 55 °F 44% 29.85 in 12 mi WSW 6.7 mph - -   Mostly Cloudy
12:00 PM 73.4 °F 55.4 °F 53% 29.83 in 6.2 mi West 11.2 mph 22.4 mph N/A   Mostly Cloudy
12:30 PM 71.6 °F 55.4 °F 57% 29.83 in 6.2 mi West 11.2 mph 20.1 mph N/A   Mostly Cloudy
1:00 PM 73.4 °F 55.4 °F 53% 29.83 in 6.2 mi West 8.9 mph 17.9 mph N/A   Mostly Cloudy
1:30 PM 71.6 °F 55.4 °F 57% 29.83 in 6.2 mi West 11.2 mph 17.9 mph N/A   Mostly Cloudy
2:00 PM 71.6 °F 55.4 °F 57% 29.83 in 6.2 mi West 8.9 mph 20.1 mph N/A   Mostly Cloudy
2:30 PM 69.8 °F 55.4 °F 60% 29.80 in 6.2 mi West 8.9 mph - N/A   Overcast
3:00 PM 68 °F 56 °F 57% 29.81 in 9 mi WSW 4.5 mph - -   Overcast
3:00 PM 69.8 °F 55.4 °F 60% 29.80 in 6.2 mi West 6.7 mph - N/A Rain Light Rain Showers
3:30 PM 69.8 °F 55.4 °F 60% 29.80 in 6.2 mi West 8.9 mph 15.7 mph N/A   Overcast
4:00 PM 68.0 °F 57.2 °F 68% 29.80 in 6.2 mi West 6.7 mph 15.7 mph N/A   Mostly Cloudy
4:16 PM 68.0 °F 57.2 °F 68% 29.80 in 6.2 mi West 6.7 mph 15.7 mph N/A Rain Light Rain Showers
4:30 PM 66.2 °F 57.2 °F 73% 29.80 in 6.2 mi West 6.7 mph - N/A Rain Light Rain Showers
5:00 PM 64.4 °F 59.0 °F 83% 29.80 in 6.2 mi WSW 4.5 mph 11.2 mph N/A Rain Light Rain Showers
5:30 PM 64.4 °F 59.0 °F 83% 29.77 in 6.2 mi WSW 4.5 mph - N/A Rain Light Rain Showers
6:00 PM 63 °F 59 °F 83% 29.78 in 6 mi West 2.2 mph - - Rain Light Rain Showers
6:00 PM 64.4 °F 60.8 °F 88% 29.77 in 6.2 mi WSW 4.5 mph - N/A Rain Light Rain Showers
6:30 PM 62.6 °F 59.0 °F 88% 29.77 in 6.2 mi WSW 6.7 mph - N/A Rain Light Rain Showers
7:00 PM 62.6 °F 59.0 °F 88% 29.77 in 6.2 mi West 4.5 mph - N/A Rain Light Rain Showers
7:30 PM 62.6 °F 59.0 °F 88% 29.74 in 6.2 mi West 6.7 mph 13.4 mph N/A   Mostly Cloudy
7:38 PM 62.6 °F 59.0 °F 88% 29.74 in 3.1 mi West 6.7 mph 13.4 mph N/A   Mostly Cloudy
7:39 PM 62.6 °F 59.0 °F 88% 29.74 in 2.2 mi West 6.7 mph 13.4 mph N/A Rain Light Rain Showers
7:41 PM 62.6 °F 59.0 °F 88% 29.74 in 1.2 mi West 6.7 mph - N/A Rain Rain Showers
7:43 PM 62.6 °F 59.0 °F 88% 29.74 in 1.4 mi West 6.7 mph - N/A Rain Light Rain Showers
7:47 PM 62.6 °F 59.0 °F 88% 29.74 in - West 6.7 mph 17.9 mph N/A Rain Light Rain Showers
7:48 PM 62.6 °F 59.0 °F 88% 29.74 in 3.1 mi West 8.9 mph 17.9 mph N/A Rain Light Rain Showers
7:52 PM 62.6 °F 59.0 °F 88% 29.74 in 4.3 mi West 8.9 mph 17.9 mph N/A Rain Light Rain Showers
8:00 PM 60.8 °F 59.0 °F 94% 29.74 in 5.0 mi West 8.9 mph 17.9 mph N/A Rain Light Rain Showers
8:06 PM 60.8 °F 59.0 °F 94% 29.74 in 3.7 mi West 6.7 mph - N/A Rain Light Rain Showers
8:21 PM 60.8 °F 59.0 °F 94% 29.74 in 5.6 mi Variable 4.5 mph - N/A Rain Light Rain Showers
8:30 PM 60.8 °F 59.0 °F 94% 29.74 in 6.2 mi WSW 6.7 mph - N/A Rain Light Rain Showers
8:32 PM 60.8 °F 59.0 °F 94% 29.74 in 6.2 mi West 6.7 mph - N/A Rain Light Rain Showers
8:50 PM 60.8 °F 59.0 °F 94% 29.74 in 6.2 mi West 8.9 mph - N/A Rain Light Rain Showers
9:00 PM 58 °F 56 °F 93% 29.76 in 6 mi WSW 2.2 mph - - Rain Light Rain Showers
9:00 PM 59.0 °F 55.4 °F 88% 29.74 in 6.2 mi WNW 8.9 mph - N/A Rain Light Rain Showers
9:30 PM 59.0 °F 55.4 °F 88% 29.77 in 6.2 mi WNW 6.7 mph - N/A Rain Light Rain Showers
9:54 PM 59.0 °F 55.4 °F 88% 29.77 in 6.2 mi WNW 8.9 mph - N/A   Mostly Cloudy
10:00 PM 57.2 °F 55.4 °F 94% 29.77 in 6.2 mi WNW 8.9 mph - N/A   Mostly Cloudy
10:30 PM 57.2 °F 55.4 °F 94% 29.77 in 6.2 mi WNW 6.7 mph - N/A   Mostly Cloudy
10:38 PM 57.2 °F 55.4 °F 94% 29.77 in 6.2 mi WNW 8.9 mph - N/A   Mostly Cloudy
11:00 PM 57.2 °F 53.6 °F 88% 29.77 in 6.2 mi NW 8.9 mph 15.7 mph N/A   Mostly Cloudy
11:30 PM 55.4 °F 53.6 °F 94% 29.77 in - NW 6.7 mph - N/A   Clear